Time,TemperatureF,DewpointF,PressureIn,WindDirection,WindDirectionDegrees,WindSpeedMPH,WindSpeedGustMPH,Humidity,HourlyPrecipIn,Conditions,Clouds,dailyrainin,SolarRadiationWatts/m^2,SoftwareType,DateUTC
2013-08-19 00:01:00,68.1,65.1,30.07,South,184,0.0,1.0,90,0.00,,,0.00,0,WeatherCatV1.21B27,2013-08-19 04:01:00,
2013-08-19 00:06:00,68.0,65.3,30.07,South,184,0.0,2.0,91,0.00,,,0.00,0,WeatherCatV1.21B27,2013-08-19 04:06:00,
2013-08-19 00:11:00,67.9,65.2,30.07,South,188,0.0,1.0,91,0.00,,,0.00,0,WeatherCatV1.21B27,2013-08-19 04:11:00,
2013-08-19 00:16:00,67.8,65.1,30.07,SSW,213,2.0,3.0,91,0.00,,,0.00,0,WeatherCatV1.21B27,2013-08-19 04:16:00,
2013-08-19 00:21:00,67.7,65.0,30.07,SSW,202,0.0,3.0,91,0.00,,,0.00,0,WeatherCatV1.21B27,2013-08-19 04:21:00,
2013-08-19 00:26:00,67.6,64.9,30.07,SSW,201,0.0,0.0,91,0.00,,,0.00,0,WeatherCatV1.21B27,2013-08-19 04:26:00,
2013-08-19 00:31:00,67.5,65.1,30.07,SSW,201,0.0,1.0,92,0.00,,,0.00,0,WeatherCatV1.21B27,2013-08-19 04:31:00,
2013-08-19 00:36:00,67.3,64.9,30.07,SSW,201,2.0,2.0,92,0.00,,,0.00,0,WeatherCatV1.21B27,2013-08-19 04:36:00,
2013-08-19 00:41:00,67.2,64.8,30.06,SSW,202,0.0,0.0,92,0.00,,,0.00,0,WeatherCatV1.21B27,2013-08-19 04:41:00,
2013-08-19 00:46:00,67.1,64.7,30.07,SSW,202,0.0,0.0,92,0.00,,,0.00,0,WeatherCatV1.21B27,2013-08-19 04:46:00,
2013-08-19 00:51:00,67.0,64.9,30.06,SSW,201,0.0,0.0,93,0.00,,,0.00,0,WeatherCatV1.21B27,2013-08-19 04:51:00,
2013-08-19 00:56:00,66.8,64.7,30.06,SSW,202,4.0,4.0,93,0.00,,,0.00,0,WeatherCatV1.21B27,2013-08-19 04:56:00,
2013-08-19 01:01:00,66.7,64.6,30.06,SSW,202,0.0,3.0,93,0.00,,,0.00,0,WeatherCatV1.21B27,2013-08-19 05:01:00,
2013-08-19 01:06:00,66.6,64.5,30.06,SSW,202,0.0,0.0,93,0.00,,,0.00,0,WeatherCatV1.21B27,2013-08-19 05:06:00,
2013-08-19 01:10:00,66.4,64.3,30.06,SSW,202,0.0,0.0,93,0.00,,,0.00,0,WeatherCatV1.21B27,2013-08-19 05:10:00,
2013-08-19 01:15:00,66.3,64.5,30.06,SSW,202,0.0,0.0,94,0.00,,,0.00,0,WeatherCatV1.21B27,2013-08-19 05:15:00,
2013-08-19 01:20:00,66.2,64.4,30.06,SSW,202,0.0,0.0,94,0.00,,,0.00,0,WeatherCatV1.21B27,2013-08-19 05:20:00,
2013-08-19 01:25:00,66.1,64.3,30.06,SSW,202,0.0,0.0,94,0.00,,,0.00,0,WeatherCatV1.21B27,2013-08-19 05:25:00,
2013-08-19 01:30:00,66.0,64.2,30.06,SSW,202,0.0,0.0,94,0.00,,,0.00,0,WeatherCatV1.21B27,2013-08-19 05:30:00,
2013-08-19 01:35:00,65.9,64.1,30.06,SSW,202,0.0,1.0,94,0.00,,,0.00,0,WeatherCatV1.21B27,2013-08-19 05:35:00,
2013-08-19 01:40:00,65.8,64.3,30.06,SSW,202,0.0,0.0,95,0.00,,,0.00,0,WeatherCatV1.21B27,2013-08-19 05:40:00,
2013-08-19 01:45:00,65.7,64.2,30.06,SSW,202,0.0,0.0,95,0.00,,,0.00,0,WeatherCatV1.21B27,2013-08-19 05:45:00,
2013-08-19 01:50:00,65.6,64.1,30.06,SSW,202,0.0,0.0,95,0.00,,,0.00,0,WeatherCatV1.21B27,2013-08-19 05:50:00,
2013-08-19 01:55:00,65.5,64.0,30.05,SSW,202,0.0,0.0,95,0.00,,,0.00,0,WeatherCatV1.21B27,2013-08-19 05:55:00,
2013-08-19 02:00:00,65.4,63.9,30.06,SSW,202,0.0,0.0,95,0.00,,,0.00,0,WeatherCatV1.21B27,2013-08-19 06:00:00,
2013-08-19 02:05:00,65.3,63.8,30.06,SSW,202,0.0,0.0,95,0.00,,,0.00,0,WeatherCatV1.21B27,2013-08-19 06:05:00,
2013-08-19 02:10:00,65.2,63.7,30.05,SSW,202,0.0,0.0,95,0.00,,,0.00,0,WeatherCatV1.21B27,2013-08-19 06:10:00,
2013-08-19 02:15:00,65.2,64.0,30.06,SSW,202,0.0,0.0,96,0.00,,,0.00,0,WeatherCatV1.21B27,2013-08-19 06:15:00,
2013-08-19 02:20:00,65.0,63.8,30.06,SSW,202,0.0,0.0,96,0.00,,,0.00,0,WeatherCatV1.21B27,2013-08-19 06:20:00,
2013-08-19 02:25:00,64.9,63.7,30.05,SSW,202,0.0,0.0,96,0.00,,,0.00,0,WeatherCatV1.21B27,2013-08-19 06:25:00,
2013-08-19 02:30:00,64.8,63.6,30.05,SSW,202,0.0,0.0,96,0.00,,,0.00,0,WeatherCatV1.21B27,2013-08-19 06:30:00,
2013-08-19 02:35:00,64.8,63.6,30.05,SSW,202,0.0,0.0,96,0.00,,,0.00,0,WeatherCatV1.21B27,2013-08-19 06:35:00,
2013-08-19 02:40:00,64.8,63.6,30.05,SSW,202,0.0,0.0,96,0.00,,,0.00,0,WeatherCatV1.21B27,2013-08-19 06:40:00,
2013-08-19 02:45:00,64.7,63.5,30.05,SSW,202,0.0,0.0,96,0.00,,,0.00,0,WeatherCatV1.21B27,2013-08-19 06:45:00,
2013-08-19 02:50:00,64.6,63.4,30.05,SSW,202,0.0,0.0,96,0.00,,,0.00,0,WeatherCatV1.21B27,2013-08-19 06:50:00,
2013-08-19 02:55:00,64.5,63.6,30.05,SSW,202,0.0,0.0,97,0.00,,,0.00,0,WeatherCatV1.21B27,2013-08-19 06:55:00,
2013-08-19 03:00:00,64.4,63.5,30.05,SSW,202,0.0,0.0,97,0.00,,,0.00,0,WeatherCatV1.21B27,2013-08-19 07:00:00,
2013-08-19 03:05:00,64.3,63.4,30.05,SSW,202,0.0,0.0,97,0.00,,,0.00,0,WeatherCatV1.21B27,2013-08-19 07:05:00,
2013-08-19 03:10:00,64.1,63.2,30.05,SSW,202,0.0,0.0,97,0.00,,,0.00,0,WeatherCatV1.21B27,2013-08-19 07:10:00,
2013-08-19 03:15:00,64.0,63.1,30.05,SSW,202,0.0,0.0,97,0.00,,,0.00,0,WeatherCatV1.21B27,2013-08-19 07:15:00,
2013-08-19 03:20:00,63.9,63.0,30.05,SSW,202,0.0,0.0,97,0.00,,,0.00,0,WeatherCatV1.21B27,2013-08-19 07:20:00,
2013-08-19 03:25:00,63.9,63.0,30.05,SSW,202,0.0,0.0,97,0.00,,,0.00,0,WeatherCatV1.21B27,2013-08-19 07:25:00,
2013-08-19 03:30:00,63.8,62.9,30.05,SSW,202,0.0,0.0,97,0.00,,,0.00,0,WeatherCatV1.21B27,2013-08-19 07:30:00,
2013-08-19 03:35:00,63.7,62.8,30.05,SSW,202,0.0,0.0,97,0.00,,,0.00,0,WeatherCatV1.21B27,2013-08-19 07:35:00,
2013-08-19 03:40:00,63.5,62.6,30.05,SSW,202,0.0,0.0,97,0.00,,,0.00,0,WeatherCatV1.21B27,2013-08-19 07:40:00,
2013-08-19 03:45:00,63.4,62.5,30.05,SSW,202,0.0,0.0,97,0.00,,,0.00,0,WeatherCatV1.21B27,2013-08-19 07:45:00,
2013-08-19 03:50:00,63.2,62.3,30.05,SSW,202,0.0,0.0,97,0.00,,,0.00,0,WeatherCatV1.21B27,2013-08-19 07:50:00,
2013-08-19 03:55:00,63.1,62.2,30.05,SSW,202,0.0,0.0,97,0.00,,,0.00,0,WeatherCatV1.21B27,2013-08-19 07:55:00,
2013-08-19 04:00:00,63.0,62.1,30.05,SSW,202,0.0,0.0,97,0.00,,,0.00,0,WeatherCatV1.21B27,2013-08-19 08:00:00,
2013-08-19 04:05:00,62.8,61.9,30.05,SSW,202,0.0,0.0,97,0.00,,,0.00,0,WeatherCatV1.21B27,2013-08-19 08:05:00,
2013-08-19 04:10:00,62.7,61.8,30.05,SSW,202,0.0,0.0,97,0.00,,,0.00,0,WeatherCatV1.21B27,2013-08-19 08:10:00,
2013-08-19 04:15:00,62.6,62.0,30.05,SSW,202,0.0,0.0,98,0.00,,,0.00,0,WeatherCatV1.21B27,2013-08-19 08:15:00,
2013-08-19 04:20:00,62.5,61.6,30.05,SSW,202,0.0,0.0,97,0.00,,,0.00,0,WeatherCatV1.21B27,2013-08-19 08:20:00,
2013-08-19 04:25:00,62.4,61.5,30.05,SSW,202,0.0,0.0,97,0.00,,,0.00,0,WeatherCatV1.21B27,2013-08-19 08:25:00,
2013-08-19 04:30:00,62.3,61.7,30.06,SSW,202,0.0,0.0,98,0.00,,,0.00,0,WeatherCatV1.21B27,2013-08-19 08:30:00,
2013-08-19 04:35:00,62.2,61.6,30.06,SSW,202,0.0,0.0,98,0.00,,,0.00,0,WeatherCatV1.21B27,2013-08-19 08:35:00,
2013-08-19 04:40:00,62.1,61.5,30.05,SSW,202,0.0,0.0,98,0.00,,,0.00,0,WeatherCatV1.21B27,2013-08-19 08:40:00,
2013-08-19 04:45:00,62.0,61.4,30.06,SSW,202,0.0,0.0,98,0.00,,,0.00,0,WeatherCatV1.21B27,2013-08-19 08:45:00,
2013-08-19 04:50:00,61.9,61.3,30.05,SSW,202,0.0,0.0,98,0.00,,,0.00,0,WeatherCatV1.21B27,2013-08-19 08:50:00,
2013-08-19 04:55:00,61.9,61.3,30.05,SSW,202,0.0,0.0,98,0.00,,,0.00,0,WeatherCatV1.21B27,2013-08-19 08:55:00,
2013-08-19 05:00:00,61.8,61.2,30.05,SSW,202,0.0,0.0,98,0.00,,,0.00,0,WeatherCatV1.21B27,2013-08-19 09:00:00,
2013-08-19 05:05:00,61.7,61.1,30.06,SSW,202,0.0,0.0,98,0.00,,,0.00,0,WeatherCatV1.21B27,2013-08-19 09:05:00,
2013-08-19 05:10:00,61.6,61.0,30.06,SSW,202,0.0,0.0,98,0.00,,,0.00,0,WeatherCatV1.21B27,2013-08-19 09:10:00,
2013-08-19 05:15:00,61.4,60.8,30.06,SSW,202,0.0,0.0,98,0.00,,,0.00,0,WeatherCatV1.21B27,2013-08-19 09:15:00,
2013-08-19 05:20:00,61.3,60.7,30.06,SSW,202,0.0,0.0,98,0.00,,,0.00,0,WeatherCatV1.21B27,2013-08-19 09:20:00,
2013-08-19 05:25:00,61.4,60.8,30.06,SSW,202,0.0,0.0,98,0.00,,,0.00,0,WeatherCatV1.21B27,2013-08-19 09:25:00,
2013-08-19 05:30:00,61.5,60.9,30.06,SSW,202,0.0,0.0,98,0.00,,,0.00,0,WeatherCatV1.21B27,2013-08-19 09:30:00,
2013-08-19 05:35:00,61.5,60.9,30.06,SSW,202,0.0,0.0,98,0.00,,,0.00,0,WeatherCatV1.21B27,2013-08-19 09:35:00,
2013-08-19 05:40:00,61.6,61.0,30.06,SSW,202,0.0,0.0,98,0.00,,,0.00,0,WeatherCatV1.21B27,2013-08-19 09:40:00,
2013-08-19 05:45:00,61.8,61.2,30.06,SSW,202,0.0,0.0,98,0.00,,,0.00,0,WeatherCatV1.21B27,2013-08-19 09:45:00,
2013-08-19 05:50:00,61.9,61.3,30.06,SSW,202,0.0,0.0,98,0.00,,,0.00,0,WeatherCatV1.21B27,2013-08-19 09:50:00,
2013-08-19 05:55:00,62.0,61.4,30.06,SSW,202,0.0,0.0,98,0.00,,,0.00,0,WeatherCatV1.21B27,2013-08-19 09:55:00,
2013-08-19 06:00:00,62.3,62.0,30.06,SSW,202,0.0,0.0,99,0.00,,,0.00,0,WeatherCatV1.21B27,2013-08-19 10:00:00,
2013-08-19 06:05:00,62.6,62.3,30.07,SSW,202,0.0,1.0,99,0.00,,,0.00,0,WeatherCatV1.21B27,2013-08-19 10:05:00,
2013-08-19 06:10:00,62.9,62.6,30.06,SSW,202,0.0,0.0,99,0.00,,,0.00,0,WeatherCatV1.21B27,2013-08-19 10:10:00,
2013-08-19 06:15:00,63.2,62.9,30.06,SSW,202,0.0,0.0,99,0.00,,,0.00,0,WeatherCatV1.21B27,2013-08-19 10:15:00,
2013-08-19 06:20:00,63.4,63.1,30.07,SSW,202,0.0,0.0,99,0.00,,,0.00,0,WeatherCatV1.21B27,2013-08-19 10:20:00,
2013-08-19 06:25:00,63.5,63.2,30.06,SSW,202,0.0,0.0,99,0.00,,,0.00,0,WeatherCatV1.21B27,2013-08-19 10:25:00,
2013-08-19 06:30:00,63.6,63.3,30.06,SSW,203,0.0,4.0,99,0.00,,,0.00,0,WeatherCatV1.21B27,2013-08-19 10:30:00,
2013-08-19 06:35:00,63.6,63.3,30.07,SSW,202,0.0,0.0,99,0.00,,,0.00,0,WeatherCatV1.21B27,2013-08-19 10:35:00,
2013-08-19 06:40:00,63.5,63.2,30.07,SSW,202,0.0,0.0,99,0.00,,,0.00,0,WeatherCatV1.21B27,2013-08-19 10:40:00,
2013-08-19 06:45:00,63.5,63.2,30.07,SSW,202,0.0,0.0,99,0.00,,,0.00,0,WeatherCatV1.21B27,2013-08-19 10:45:00,
2013-08-19 06:50:00,63.5,63.2,30.07,SSW,203,0.0,0.0,99,0.00,,,0.00,0,WeatherCatV1.21B27,2013-08-19 10:50:00,
2013-08-19 06:55:00,63.5,63.2,30.07,SSW,203,0.0,0.0,99,0.00,,,0.00,5,WeatherCatV1.21B27,2013-08-19 10:55:00,
2013-08-19 07:00:00,63.5,63.2,30.08,SSW,202,3.0,3.0,99,0.00,,,0.00,7,WeatherCatV1.21B27,2013-08-19 11:00:00,
2013-08-19 07:05:00,63.6,63.3,30.08,SSW,202,0.0,0.0,99,0.00,,,0.00,9,WeatherCatV1.21B27,2013-08-19 11:05:00,
2013-08-19 07:10:00,63.6,63.3,30.08,SSW,202,0.0,0.0,99,0.00,,,0.00,11,WeatherCatV1.21B27,2013-08-19 11:10:00,
2013-08-19 07:15:00,63.7,63.4,30.08,SSW,203,0.0,3.0,99,0.00,,,0.00,11,WeatherCatV1.21B27,2013-08-19 11:15:00,
2013-08-19 07:20:00,63.7,63.4,30.08,SSW,203,0.0,1.0,99,0.00,,,0.00,14,WeatherCatV1.21B27,2013-08-19 11:20:00,
2013-08-19 07:25:00,63.7,63.4,30.08,SSW,203,0.0,0.0,99,0.00,,,0.00,18,WeatherCatV1.21B27,2013-08-19 11:25:00,
2013-08-19 07:30:00,63.7,63.4,30.08,SSW,202,0.0,0.0,99,0.00,,,0.00,19,WeatherCatV1.21B27,2013-08-19 11:30:00,
2013-08-19 07:35:00,63.7,63.4,30.08,SSW,203,0.0,0.0,99,0.00,,,0.00,21,WeatherCatV1.21B27,2013-08-19 11:35:00,
2013-08-19 07:40:00,-999.0,-99.9,30.07,SSW,203,0.0,0.0,99,0.00,,,0.00,21,WeatherCatV1.21B27,2013-08-19 11:40:00,
2013-08-19 07:45:00,-999.0,-99.9,30.07,SSW,203,0.0,0.0,99,0.00,,,0.00,23,WeatherCatV1.21B27,2013-08-19 11:45:00,
2013-08-19 07:50:00,-999.0,-99.9,30.07,SSW,203,0.0,0.0,99,0.00,,,0.00,28,WeatherCatV1.21B27,2013-08-19 11:50:00,
2013-08-19 07:55:00,-999.0,-99.9,30.07,SSW,203,0.0,0.0,99,0.00,,,0.00,28,WeatherCatV1.21B27,2013-08-19 11:55:00,
2013-08-19 08:00:00,-999.0,-99.9,30.07,SSW,203,1.0,1.0,99,0.00,,,0.00,28,WeatherCatV1.21B27,2013-08-19 12:00:00,
2013-08-19 08:05:00,-999.0,-99.9,30.07,SSW,203,0.0,0.0,99,0.00,,,0.00,32,WeatherCatV1.21B27,2013-08-19 12:05:00,
2013-08-19 08:10:00,-999.0,-99.9,30.07,SSW,203,0.0,0.0,99,0.00,,,0.00,47,WeatherCatV1.21B27,2013-08-19 12:10:00,
2013-08-19 08:14:00,-999.0,-99.9,30.07,SSW,203,0.0,0.0,99,0.00,,,0.00,58,WeatherCatV1.21B27,2013-08-19 12:14:00,
2013-08-19 08:19:00,-999.0,-99.9,30.06,SSW,203,0.0,1.0,99,0.00,,,0.00,76,WeatherCatV1.21B27,2013-08-19 12:19:00,
2013-08-19 08:24:00,-999.0,-99.9,30.07,SSW,203,0.0,0.0,99,0.00,,,0.00,67,WeatherCatV1.21B27,2013-08-19 12:24:00,
2013-08-19 08:29:00,-999.0,-99.9,30.07,SSW,203,0.0,0.0,-999,0.00,,,0.00,72,WeatherCatV1.21B27,2013-08-19 12:29:00,
2013-08-19 08:34:00,-999.0,-99.9,30.07,SSW,203,0.0,0.0,-999,0.00,,,0.00,76,WeatherCatV1.21B27,2013-08-19 12:34:00,
2013-08-19 08:39:00,-999.0,-99.9,30.07,SSW,203,0.0,1.0,-999,0.00,,,0.00,90,WeatherCatV1.21B27,2013-08-19 12:39:00,
2013-08-19 08:44:00,-999.0,-99.9,30.07,SSW,203,0.0,0.0,-999,0.00,,,0.00,141,WeatherCatV1.21B27,2013-08-19 12:44:00,
2013-08-19 08:49:00,-999.0,-99.9,30.07,SSW,203,0.0,0.0,-999,0.00,,,0.00,128,WeatherCatV1.21B27,2013-08-19 12:49:00,
2013-08-19 08:54:00,-999.0,-99.9,30.07,SSW,203,0.0,3.0,-999,0.00,,,0.00,134,WeatherCatV1.21B27,2013-08-19 12:54:00,
2013-08-19 08:59:00,-999.0,-99.9,30.07,SSW,203,0.0,0.0,-999,0.00,,,0.00,134,WeatherCatV1.21B27,2013-08-19 12:59:00,
2013-08-19 09:04:00,-999.0,-99.9,30.07,SSW,203,0.0,0.0,-999,0.00,,,0.00,142,WeatherCatV1.21B27,2013-08-19 13:04:00,
2013-08-19 09:09:00,-999.0,-99.9,30.07,SSW,203,1.0,2.0,-999,0.00,,,0.00,120,WeatherCatV1.21B27,2013-08-19 13:09:00,
2013-08-19 09:14:00,-999.0,-99.9,30.07,SSW,203,0.0,0.0,-999,0.00,,,0.00,125,WeatherCatV1.21B27,2013-08-19 13:14:00,
2013-08-19 09:19:00,-39.3,-99.9,30.19,SSW,202,0.0,0.0,-999,0.00,,,0.00,155,WeatherCatV1.21B27,2013-08-19 13:19:00,
2013-08-19 09:24:00,-39.3,-99.9,30.19,SSW,202,0.0,0.0,-999,0.00,,,0.00,225,WeatherCatV1.21B27,2013-08-19 13:24:00,
2013-08-19 09:29:00,-999.0,-99.9,30.07,SSW,203,0.0,1.0,-999,0.00,,,0.00,251,WeatherCatV1.21B27,2013-08-19 13:29:00,
2013-08-19 09:34:00,-999.0,-99.9,30.07,SSW,203,0.0,0.0,-999,0.00,,,0.00,197,WeatherCatV1.21B27,2013-08-19 13:34:00,
2013-08-19 09:39:00,-999.0,-99.9,30.07,SSW,196,0.0,0.0,-999,0.00,,,0.00,204,WeatherCatV1.21B27,2013-08-19 13:39:00,
2013-08-19 09:44:00,-999.0,-99.9,30.07,West,267,2.0,4.0,-999,0.00,,,0.00,167,WeatherCatV1.21B27,2013-08-19 13:44:00,
2013-08-19 09:49:00,-999.0,-99.9,30.08,West,267,2.0,3.0,-999,0.00,,,0.00,232,WeatherCatV1.21B27,2013-08-19 13:49:00,
2013-08-19 09:54:00,-999.0,-99.9,30.07,West,267,1.0,1.0,-999,0.00,,,0.00,269,WeatherCatV1.21B27,2013-08-19 13:54:00,
2013-08-19 09:59:00,-999.0,-99.9,30.07,West,264,3.0,4.0,-999,0.00,,,0.00,399,WeatherCatV1.21B27,2013-08-19 13:59:00,
2013-08-19 10:04:00,-999.0,-99.9,30.08,West,264,0.0,0.0,-999,0.00,,,0.00,223,WeatherCatV1.21B27,2013-08-19 14:04:00,
2013-08-19 10:09:00,-999.0,-99.9,30.08,WSW,254,0.0,0.0,-999,0.00,,,0.00,230,WeatherCatV1.21B27,2013-08-19 14:09:00,
2013-08-19 10:14:00,-999.0,-99.9,30.08,WSW,254,0.0,0.0,-999,0.00,,,0.00,269,WeatherCatV1.21B27,2013-08-19 14:14:00,
2013-08-19 10:19:00,-999.0,-99.9,30.08,WSW,254,0.0,1.0,-999,0.00,,,0.00,390,WeatherCatV1.21B27,2013-08-19 14:19:00,
2013-08-19 10:24:00,-999.0,-99.9,30.08,WSW,254,0.0,0.0,-999,0.00,,,0.00,454,WeatherCatV1.21B27,2013-08-19 14:24:00,
2013-08-19 10:29:00,-999.0,-99.9,30.07,WSW,254,0.0,3.0,78,0.00,,,0.00,278,WeatherCatV1.21B27,2013-08-19 14:29:00,
2013-08-19 10:34:00,69.6,61.7,30.08,WSW,255,0.0,1.0,76,0.00,,,0.00,737,WeatherCatV1.21B27,2013-08-19 14:34:00,
2013-08-19 10:39:00,70.6,66.9,30.07,WSW,252,2.0,5.0,88,0.00,,,0.00,724,WeatherCatV1.21B27,2013-08-19 14:39:00,
2013-08-19 10:44:00,70.6,66.9,30.07,WSW,252,0.0,0.0,88,0.00,,,0.00,828,WeatherCatV1.21B27,2013-08-19 14:44:00,
2013-08-19 10:49:00,71.6,67.5,30.07,WSW,252,0.0,0.0,87,0.00,,,0.00,279,WeatherCatV1.21B27,2013-08-19 14:49:00,
2013-08-19 10:54:00,71.5,67.1,30.07,WSW,253,0.0,3.0,86,0.00,,,0.00,545,WeatherCatV1.21B27,2013-08-19 14:54:00,
2013-08-19 10:59:00,72.1,67.3,30.07,West,279,0.0,1.0,85,0.00,,,0.00,777,WeatherCatV1.21B27,2013-08-19 14:59:00,
2013-08-19 11:04:00,73.4,67.9,30.07,West,279,0.0,4.0,83,0.00,,,0.00,731,WeatherCatV1.21B27,2013-08-19 15:04:00,
2013-08-19 11:09:00,73.4,67.9,30.07,West,281,0.0,1.0,83,0.00,,,0.00,204,WeatherCatV1.21B27,2013-08-19 15:09:00,
2013-08-19 11:14:00,73.0,67.2,30.07,West,281,0.0,0.0,82,0.00,,,0.00,250,WeatherCatV1.21B27,2013-08-19 15:14:00,
2013-08-19 11:19:00,73.8,67.9,30.06,West,279,0.0,1.0,82,0.00,,,0.00,856,WeatherCatV1.21B27,2013-08-19 15:19:00,
2013-08-19 11:24:00,74.4,68.2,30.06,NW,322,0.0,1.0,81,0.00,,,0.00,376,WeatherCatV1.21B27,2013-08-19 15:24:00,
2013-08-19 11:29:00,74.1,67.9,30.06,WNW,302,0.0,1.0,81,0.00,,,0.00,868,WeatherCatV1.21B27,2013-08-19 15:29:00,
2013-08-19 11:34:00,74.5,67.9,30.06,NW,307,0.0,0.0,80,0.00,,,0.00,418,WeatherCatV1.21B27,2013-08-19 15:34:00,
2013-08-19 11:39:00,75.0,67.3,30.06,NW,306,0.0,0.0,77,0.00,,,0.00,223,WeatherCatV1.21B27,2013-08-19 15:39:00,
2013-08-19 11:44:00,74.9,67.9,30.06,NW,306,0.0,0.0,79,0.00,,,0.00,914,WeatherCatV1.21B27,2013-08-19 15:44:00,
2013-08-19 11:49:00,75.6,68.2,30.06,NW,306,0.0,1.0,78,0.00,,,0.00,907,WeatherCatV1.21B27,2013-08-19 15:49:00,
2013-08-19 11:54:00,76.6,68.4,30.06,NW,306,0.0,0.0,76,0.00,,,0.00,935,WeatherCatV1.21B27,2013-08-19 15:54:00,
2013-08-19 11:59:00,76.6,68.1,30.06,NW,306,0.0,3.0,75,0.00,,,0.00,229,WeatherCatV1.21B27,2013-08-19 15:59:00,
2013-08-19 12:04:00,75.5,67.4,30.06,NW,306,1.0,3.0,76,0.00,,,0.00,241,WeatherCatV1.21B27,2013-08-19 16:04:00,
2013-08-19 12:09:00,74.7,66.6,30.06,NW,306,4.0,4.0,76,0.00,,,0.00,225,WeatherCatV1.21B27,2013-08-19 16:09:00,
2013-08-19 12:14:00,74.5,67.5,30.06,NW,306,0.0,2.0,79,0.00,,,0.00,318,WeatherCatV1.21B27,2013-08-19 16:14:00,
2013-08-19 12:19:00,74.8,68.6,30.05,NW,318,3.0,4.0,81,0.00,,,0.00,438,WeatherCatV1.21B27,2013-08-19 16:19:00,
2013-08-19 12:24:00,74.9,67.9,30.05,NW,321,0.0,1.0,79,0.00,,,0.00,278,WeatherCatV1.21B27,2013-08-19 16:24:00,
2013-08-19 12:29:00,74.3,67.3,30.05,NW,320,3.0,5.0,79,0.00,,,0.00,193,WeatherCatV1.21B27,2013-08-19 16:29:00,
2013-08-19 12:34:00,73.9,67.3,30.05,NW,320,0.0,0.0,80,0.00,,,0.00,202,WeatherCatV1.21B27,2013-08-19 16:34:00,
2013-08-19 12:39:00,73.9,67.7,30.05,NW,320,0.0,3.0,81,0.00,,,0.00,207,WeatherCatV1.21B27,2013-08-19 16:39:00,
2013-08-19 12:44:00,74.0,67.4,30.05,NW,320,0.0,0.0,80,0.00,,,0.00,244,WeatherCatV1.21B27,2013-08-19 16:44:00,
2013-08-19 12:49:00,74.0,66.3,30.05,NW,320,0.0,1.0,77,0.00,,,0.00,329,WeatherCatV1.21B27,2013-08-19 16:49:00,
2013-08-19 12:54:00,74.5,67.5,30.05,NW,312,3.0,5.0,79,0.00,,,0.00,1035,WeatherCatV1.21B27,2013-08-19 16:54:00,
2013-08-19 12:59:00,76.4,68.3,30.05,NW,323,0.0,2.0,76,0.00,,,0.00,308,WeatherCatV1.21B27,2013-08-19 16:59:00,
2013-08-19 13:04:00,76.7,67.8,30.05,NW,322,0.0,2.0,74,0.00,,,0.00,285,WeatherCatV1.21B27,2013-08-19 17:04:00,
2013-08-19 13:09:00,77.2,68.6,30.05,NW,305,2.0,5.0,75,0.00,,,0.00,990,WeatherCatV1.21B27,2013-08-19 17:09:00,
2013-08-19 13:14:00,77.8,68.4,30.05,NW,323,0.0,5.0,73,0.00,,,0.00,1028,WeatherCatV1.21B27,2013-08-19 17:14:00,
2013-08-19 13:19:00,78.7,68.5,30.04,NW,325,5.0,5.0,71,0.00,,,0.00,1030,WeatherCatV1.21B27,2013-08-19 17:19:00,
2013-08-19 13:24:00,78.7,67.7,30.05,NW,310,1.0,4.0,69,0.00,,,0.00,322,WeatherCatV1.21B27,2013-08-19 17:24:00,
2013-08-19 13:29:00,78.2,68.0,30.05,NW,316,0.0,4.0,71,0.00,,,0.00,330,WeatherCatV1.21B27,2013-08-19 17:29:00,
2013-08-19 13:34:00,78.3,67.7,30.05,NW,323,0.0,0.0,70,0.00,,,0.00,991,WeatherCatV1.21B27,2013-08-19 17:34:00,
2013-08-19 13:39:00,77.9,67.3,30.05,NNW,332,6.0,6.0,70,0.00,,,0.00,323,WeatherCatV1.21B27,2013-08-19 17:39:00,
2013-08-19 13:44:00,78.0,68.2,30.05,NNW,337,1.0,6.0,72,0.00,,,0.00,905,WeatherCatV1.21B27,2013-08-19 17:44:00,
2013-08-19 13:49:00,77.7,67.1,30.05,North,350,2.0,10.0,70,0.00,,,0.00,972,WeatherCatV1.21B27,2013-08-19 17:49:00,
2013-08-19 13:54:00,78.1,67.9,30.05,NW,316,2.0,7.0,71,0.00,,,0.00,926,WeatherCatV1.21B27,2013-08-19 17:54:00,
2013-08-19 13:59:00,78.7,67.7,30.05,WNW,303,0.0,6.0,69,0.00,,,0.00,940,WeatherCatV1.21B27,2013-08-19 17:59:00,
2013-08-19 14:04:00,77.4,66.8,30.05,WNW,290,0.0,1.0,70,0.00,,,0.00,951,WeatherCatV1.21B27,2013-08-19 18:04:00,
2013-08-19 14:09:00,78.1,66.7,30.05,NW,325,2.0,6.0,68,0.00,,,0.00,940,WeatherCatV1.21B27,2013-08-19 18:09:00,
2013-08-19 14:14:00,78.7,67.2,30.05,NW,325,1.0,1.0,68,0.00,,,0.00,967,WeatherCatV1.21B27,2013-08-19 18:14:00,
2013-08-19 14:19:00,79.7,66.9,30.04,NW,309,0.0,6.0,65,0.00,,,0.00,965,WeatherCatV1.21B27,2013-08-19 18:19:00,
2013-08-19 14:24:00,80.4,68.0,30.04,NNW,332,0.0,2.0,66,0.00,,,0.00,912,WeatherCatV1.21B27,2013-08-19 18:24:00,
2013-08-19 14:29:00,79.7,66.4,30.04,WNW,288,0.0,4.0,64,0.00,,,0.00,904,WeatherCatV1.21B27,2013-08-19 18:29:00,
2013-08-19 14:34:00,80.4,68.0,30.04,NW,306,3.0,6.0,66,0.00,,,0.00,879,WeatherCatV1.21B27,2013-08-19 18:34:00,
2013-08-19 14:39:00,80.3,67.4,30.04,NW,321,3.0,3.0,65,0.00,,,0.00,882,WeatherCatV1.21B27,2013-08-19 18:39:00,
2013-08-19 14:44:00,79.1,65.8,30.04,WSW,250,0.0,5.0,64,0.00,,,0.00,865,WeatherCatV1.21B27,2013-08-19 18:44:00,
2013-08-19 14:48:00,79.0,65.3,30.04,West,277,4.0,7.0,63,0.00,,,0.00,870,WeatherCatV1.21B27,2013-08-19 18:48:00,
2013-08-19 14:53:00,78.7,65.9,30.04,North,6,3.0,10.0,65,0.00,,,0.00,856,WeatherCatV1.21B27,2013-08-19 18:53:00,
2013-08-19 14:58:00,79.8,65.6,30.04,NW,320,3.0,3.0,62,0.00,,,0.00,854,WeatherCatV1.21B27,2013-08-19 18:58:00,
2013-08-19 15:03:00,80.5,66.7,30.04,West,263,1.0,6.0,63,0.00,,,0.00,844,WeatherCatV1.21B27,2013-08-19 19:03:00,
2013-08-19 15:08:00,80.4,65.7,30.04,NNE,22,0.0,1.0,61,0.00,,,0.00,835,WeatherCatV1.21B27,2013-08-19 19:08:00,
2013-08-19 15:13:00,80.5,65.3,30.03,NW,305,1.0,6.0,60,0.00,,,0.00,828,WeatherCatV1.21B27,2013-08-19 19:13:00,
2013-08-19 15:18:00,81.0,64.3,30.03,NNW,337,4.0,4.0,57,0.00,,,0.00,823,WeatherCatV1.21B27,2013-08-19 19:18:00,
2013-08-19 15:23:00,81.3,64.6,30.03,North,1,0.0,4.0,57,0.00,,,0.00,821,WeatherCatV1.21B27,2013-08-19 19:23:00,
2013-08-19 15:28:00,81.0,62.8,30.03,NW,312,9.0,11.0,54,0.00,,,0.00,800,WeatherCatV1.21B27,2013-08-19 19:28:00,
2013-08-19 15:33:00,80.4,63.8,30.03,NNW,327,0.0,7.0,57,0.00,,,0.00,791,WeatherCatV1.21B27,2013-08-19 19:33:00,
2013-08-19 15:38:00,80.3,64.2,30.04,NNW,342,3.0,3.0,58,0.00,,,0.00,789,WeatherCatV1.21B27,2013-08-19 19:38:00,
2013-08-19 15:43:00,80.7,63.0,30.03,NNW,335,6.0,6.0,55,0.00,,,0.00,773,WeatherCatV1.21B27,2013-08-19 19:43:00,
2013-08-19 15:48:00,81.0,62.2,30.03,NW,313,2.0,6.0,53,0.00,,,0.00,768,WeatherCatV1.21B27,2013-08-19 19:48:00,
2013-08-19 15:53:00,80.7,62.5,30.03,NW,315,3.0,5.0,54,0.00,,,0.00,754,WeatherCatV1.21B27,2013-08-19 19:53:00,
2013-08-19 15:58:00,81.1,62.3,30.03,NW,307,0.0,4.0,53,0.00,,,0.00,738,WeatherCatV1.21B27,2013-08-19 19:58:00,
2013-08-19 16:03:00,81.6,63.3,30.03,WNW,301,2.0,10.0,54,0.00,,,0.00,724,WeatherCatV1.21B27,2013-08-19 20:03:00,
2013-08-19 16:08:00,81.0,62.8,30.03,NE,42,0.0,6.0,54,0.00,,,0.00,715,WeatherCatV1.21B27,2013-08-19 20:08:00,
2013-08-19 16:13:00,81.1,63.4,30.03,NW,315,3.0,7.0,55,0.00,,,0.00,701,WeatherCatV1.21B27,2013-08-19 20:13:00,
2013-08-19 16:18:00,80.6,62.9,30.03,NW,310,5.0,6.0,55,0.00,,,0.00,689,WeatherCatV1.21B27,2013-08-19 20:18:00,
2013-08-19 16:23:00,81.1,62.8,30.03,NNE,18,0.0,4.0,54,0.00,,,0.00,677,WeatherCatV1.21B27,2013-08-19 20:23:00,
2013-08-19 16:28:00,81.2,63.5,30.03,WNW,291,4.0,4.0,55,0.00,,,0.00,659,WeatherCatV1.21B27,2013-08-19 20:28:00,
2013-08-19 16:33:00,81.7,63.9,30.02,North,6,0.0,6.0,55,0.00,,,0.00,649,WeatherCatV1.21B27,2013-08-19 20:33:00,
2013-08-19 16:38:00,81.2,62.4,30.03,NW,304,1.0,5.0,53,0.00,,,0.00,640,WeatherCatV1.21B27,2013-08-19 20:38:00,
2013-08-19 16:43:00,80.2,62.5,30.02,NW,312,0.0,3.0,55,0.00,,,0.00,628,WeatherCatV1.21B27,2013-08-19 20:43:00,
2013-08-19 16:48:00,80.5,62.8,30.02,NNW,333,0.0,4.0,55,0.00,,,0.00,613,WeatherCatV1.21B27,2013-08-19 20:48:00,
2013-08-19 16:53:00,80.4,62.7,30.03,West,269,0.0,7.0,55,0.00,,,0.00,596,WeatherCatV1.21B27,2013-08-19 20:53:00,
2013-08-19 16:58:00,80.8,62.0,30.02,WNW,297,4.0,7.0,53,0.00,,,0.00,582,WeatherCatV1.21B27,2013-08-19 20:58:00,
2013-08-19 17:03:00,80.9,62.7,30.03,NW,306,1.0,7.0,54,0.00,,,0.00,566,WeatherCatV1.21B27,2013-08-19 21:03:00,
2013-08-19 17:08:00,81.3,62.5,30.02,NW,317,0.0,7.0,53,0.00,,,0.00,550,WeatherCatV1.21B27,2013-08-19 21:08:00,
2013-08-19 17:13:00,80.9,61.0,30.02,NW,310,1.0,1.0,51,0.00,,,0.00,533,WeatherCatV1.21B27,2013-08-19 21:13:00,
2013-08-19 17:18:00,80.7,62.0,30.02,NW,315,0.0,5.0,53,0.00,,,0.00,519,WeatherCatV1.21B27,2013-08-19 21:18:00,
2013-08-19 17:23:00,80.6,62.4,30.02,NW,317,6.0,6.0,54,0.00,,,0.00,496,WeatherCatV1.21B27,2013-08-19 21:23:00,
2013-08-19 17:28:00,80.7,62.0,30.02,NW,321,2.0,6.0,53,0.00,,,0.00,480,WeatherCatV1.21B27,2013-08-19 21:28:00,
2013-08-19 17:33:00,80.7,62.5,30.02,NW,319,2.0,5.0,54,0.00,,,0.00,464,WeatherCatV1.21B27,2013-08-19 21:33:00,
2013-08-19 17:38:00,80.7,62.0,30.02,NW,320,4.0,8.0,53,0.00,,,0.00,448,WeatherCatV1.21B27,2013-08-19 21:38:00,
2013-08-19 17:43:00,80.6,61.9,30.02,West,277,4.0,6.0,53,0.00,,,0.00,431,WeatherCatV1.21B27,2013-08-19 21:43:00,
2013-08-19 17:48:00,80.2,61.0,30.02,NW,306,1.0,5.0,52,0.00,,,0.00,413,WeatherCatV1.21B27,2013-08-19 21:48:00,
2013-08-19 17:53:00,80.2,61.5,30.02,NW,325,0.0,4.0,53,0.00,,,0.00,394,WeatherCatV1.21B27,2013-08-19 21:53:00,
2013-08-19 17:58:00,80.4,61.1,30.02,NW,326,1.0,4.0,52,0.00,,,0.00,380,WeatherCatV1.21B27,2013-08-19 21:58:00,
2013-08-19 18:03:00,80.4,60.6,30.02,NW,305,0.0,4.0,51,0.00,,,0.00,362,WeatherCatV1.21B27,2013-08-19 22:03:00,
2013-08-19 18:08:00,80.1,60.9,30.02,NW,319,0.0,6.0,52,0.00,,,0.00,345,WeatherCatV1.21B27,2013-08-19 22:08:00,
2013-08-19 18:13:00,80.0,60.8,30.02,West,266,0.0,6.0,52,0.00,,,0.00,329,WeatherCatV1.21B27,2013-08-19 22:13:00,
2013-08-19 18:18:00,79.9,61.2,30.02,West,280,0.0,5.0,53,0.00,,,0.00,311,WeatherCatV1.21B27,2013-08-19 22:18:00,
2013-08-19 18:23:00,79.9,60.7,30.02,NW,325,3.0,6.0,52,0.00,,,0.00,287,WeatherCatV1.21B27,2013-08-19 22:23:00,
2013-08-19 18:28:00,79.5,61.4,30.02,WNW,286,0.0,4.0,54,0.00,,,0.00,251,WeatherCatV1.21B27,2013-08-19 22:28:00,
2013-08-19 18:33:00,79.6,61.5,30.02,WNW,287,0.0,1.0,54,0.00,,,0.00,250,WeatherCatV1.21B27,2013-08-19 22:33:00,
2013-08-19 18:38:00,79.8,62.2,30.02,NW,321,0.0,4.0,55,0.00,,,0.00,223,WeatherCatV1.21B27,2013-08-19 22:38:00,
2013-08-19 18:43:00,79.8,61.7,30.01,West,260,3.0,7.0,54,0.00,,,0.00,227,WeatherCatV1.21B27,2013-08-19 22:43:00,
2013-08-19 18:48:00,79.7,61.6,30.01,West,262,0.0,0.0,54,0.00,,,0.00,202,WeatherCatV1.21B27,2013-08-19 22:48:00,
2013-08-19 18:53:00,79.9,62.3,30.01,North,357,3.0,5.0,55,0.00,,,0.00,174,WeatherCatV1.21B27,2013-08-19 22:53:00,
2013-08-19 18:58:00,80.1,61.9,30.01,NNW,328,0.0,1.0,54,0.00,,,0.00,178,WeatherCatV1.21B27,2013-08-19 22:58:00,
2013-08-19 19:03:00,79.8,61.7,30.00,WNW,300,3.0,4.0,54,0.00,,,0.00,148,WeatherCatV1.21B27,2013-08-19 23:03:00,
2013-08-19 19:08:00,79.3,61.7,30.00,WNW,300,0.0,1.0,55,0.00,,,0.00,127,WeatherCatV1.21B27,2013-08-19 23:08:00,
2013-08-19 19:13:00,78.9,61.8,30.00,WNW,300,0.0,0.0,56,0.00,,,0.00,83,WeatherCatV1.21B27,2013-08-19 23:13:00,
2013-08-19 19:18:00,78.7,62.2,30.00,WNW,300,0.0,0.0,57,0.00,,,0.00,56,WeatherCatV1.21B27,2013-08-19 23:18:00,
2013-08-19 19:23:00,78.7,61.7,30.00,WNW,300,0.0,3.0,56,0.00,,,0.00,53,WeatherCatV1.21B27,2013-08-19 23:23:00,
2013-08-19 19:28:00,78.5,61.5,30.00,WNW,300,0.0,3.0,56,0.00,,,0.00,47,WeatherCatV1.21B27,2013-08-19 23:28:00,
2013-08-19 19:33:00,78.3,62.3,30.00,WNW,300,0.0,0.0,58,0.00,,,0.00,44,WeatherCatV1.21B27,2013-08-19 23:33:00,
2013-08-19 19:38:00,78.0,62.0,30.00,WNW,300,0.0,1.0,58,0.00,,,0.00,39,WeatherCatV1.21B27,2013-08-19 23:38:00,
2013-08-19 19:43:00,77.6,61.6,30.00,WNW,300,0.0,0.0,58,0.00,,,0.00,33,WeatherCatV1.21B27,2013-08-19 23:43:00,
2013-08-19 19:48:00,77.4,61.9,30.00,WNW,300,0.0,0.0,59,0.00,,,0.00,28,WeatherCatV1.21B27,2013-08-19 23:48:00,
2013-08-19 19:53:00,77.2,62.7,30.00,WNW,300,0.0,0.0,61,0.00,,,0.00,25,WeatherCatV1.21B27,2013-08-19 23:53:00,
2013-08-19 19:58:00,77.0,63.0,30.00,WNW,300,0.0,0.0,62,0.00,,,0.00,21,WeatherCatV1.21B27,2013-08-19 23:58:00,
2013-08-19 20:03:00,76.8,62.8,30.00,WNW,300,0.0,0.0,62,0.00,,,0.00,16,WeatherCatV1.21B27,2013-08-20 00:03:00,
2013-08-19 20:08:00,76.5,62.5,30.00,WNW,300,0.0,0.0,62,0.00,,,0.00,12,WeatherCatV1.21B27,2013-08-20 00:08:00,
2013-08-19 20:13:00,76.1,62.6,30.00,WNW,300,0.0,0.0,63,0.00,,,0.00,7,WeatherCatV1.21B27,2013-08-20 00:13:00,
2013-08-19 20:18:00,75.5,62.5,30.00,WNW,300,0.0,0.0,64,0.00,,,0.00,5,WeatherCatV1.21B27,2013-08-20 00:18:00,
2013-08-19 20:23:00,75.0,62.4,30.00,WNW,300,0.0,0.0,65,0.00,,,0.00,0,WeatherCatV1.21B27,2013-08-20 00:23:00,
2013-08-19 20:28:00,74.4,62.3,30.00,WNW,300,0.0,0.0,66,0.00,,,0.00,0,WeatherCatV1.21B27,2013-08-20 00:28:00,
2013-08-19 20:33:00,73.8,62.1,30.01,WNW,300,0.0,0.0,67,0.00,,,0.00,0,WeatherCatV1.21B27,2013-08-20 00:33:00,
2013-08-19 20:38:00,73.2,62.0,30.01,WNW,300,0.0,0.0,68,0.00,,,0.00,0,WeatherCatV1.21B27,2013-08-20 00:38:00,
2013-08-19 20:43:00,72.7,61.9,30.01,WNW,300,0.0,0.0,69,0.00,,,0.00,0,WeatherCatV1.21B27,2013-08-20 00:43:00,
2013-08-19 20:48:00,72.3,62.0,30.01,WNW,300,0.0,0.0,70,0.00,,,0.00,0,WeatherCatV1.21B27,2013-08-20 00:48:00,
2013-08-19 20:53:00,71.9,62.0,30.01,WNW,300,0.0,0.0,71,0.00,,,0.00,0,WeatherCatV1.21B27,2013-08-20 00:53:00,
2013-08-19 20:58:00,71.5,62.0,30.01,WNW,300,0.0,0.0,72,0.00,,,0.00,0,WeatherCatV1.21B27,2013-08-20 00:58:00,
2013-08-19 21:03:00,71.1,61.6,30.13,WNW,300,0.0,0.0,72,0.00,,,0.00,0,WeatherCatV1.21B27,2013-08-20 01:03:00,
2013-08-19 21:08:00,70.8,61.7,30.14,WNW,300,0.0,0.0,73,0.00,,,0.00,0,WeatherCatV1.21B27,2013-08-20 01:08:00,
2013-08-19 21:13:00,70.5,61.8,30.14,WNW,300,0.0,0.0,74,0.00,,,0.00,0,WeatherCatV1.21B27,2013-08-20 01:13:00,
2013-08-19 21:18:00,70.2,61.5,30.14,WNW,300,0.0,0.0,74,0.00,,,0.00,0,WeatherCatV1.21B27,2013-08-20 01:18:00,
2013-08-19 21:23:00,69.9,61.6,30.14,WNW,300,0.0,0.0,75,0.00,,,0.00,0,WeatherCatV1.21B27,2013-08-20 01:23:00,
2013-08-19 21:28:00,69.5,61.2,30.14,WNW,300,0.0,0.0,75,0.00,,,0.00,0,WeatherCatV1.21B27,2013-08-20 01:28:00,
2013-08-19 21:33:00,69.3,61.4,30.14,WNW,300,0.0,0.0,76,0.00,,,0.00,0,WeatherCatV1.21B27,2013-08-20 01:33:00,
2013-08-19 21:38:00,69.0,61.5,30.15,WNW,300,0.0,0.0,77,0.00,,,0.00,0,WeatherCatV1.21B27,2013-08-20 01:38:00,
2013-08-19 21:43:00,68.7,61.2,30.15,WNW,300,0.0,0.0,77,0.00,,,0.00,0,WeatherCatV1.21B27,2013-08-20 01:43:00,
2013-08-19 21:47:00,68.5,61.4,30.15,WNW,300,0.0,0.0,78,0.00,,,0.00,0,WeatherCatV1.21B27,2013-08-20 01:47:00,
2013-08-19 21:52:00,68.3,61.2,30.15,WNW,300,0.0,0.0,78,0.00,,,0.00,0,WeatherCatV1.21B27,2013-08-20 01:52:00,
2013-08-19 21:57:00,68.1,61.3,30.15,WNW,300,0.0,0.0,79,0.00,,,0.00,0,WeatherCatV1.21B27,2013-08-20 01:57:00,
2013-08-19 22:03:00,67.8,61.0,30.03,WNW,300,0.0,0.0,79,0.00,,,0.00,0,WeatherCatV1.21B27,2013-08-20 02:03:00,
2013-08-19 22:08:00,67.6,61.2,30.03,WNW,300,0.0,0.0,80,0.00,,,0.00,0,WeatherCatV1.21B27,2013-08-20 02:08:00,
2013-08-19 22:13:00,67.4,61.4,30.03,WNW,300,0.0,0.0,81,0.00,,,0.00,0,WeatherCatV1.21B27,2013-08-20 02:13:00,
2013-08-19 22:18:00,67.2,61.2,30.03,WNW,300,0.0,0.0,81,0.00,,,0.00,0,WeatherCatV1.21B27,2013-08-20 02:18:00,
2013-08-19 22:23:00,67.1,61.1,30.03,WNW,300,0.0,0.0,81,0.00,,,0.00,0,WeatherCatV1.21B27,2013-08-20 02:23:00,
2013-08-19 22:27:00,66.9,60.9,30.03,WNW,300,0.0,0.0,81,0.00,,,0.00,0,WeatherCatV1.21B27,2013-08-20 02:27:00,
2013-08-19 22:32:00,66.8,61.1,30.03,WNW,300,0.0,0.0,82,0.00,,,0.00,0,WeatherCatV1.21B27,2013-08-20 02:32:00,
2013-08-19 22:37:00,66.7,61.0,30.03,WNW,300,0.0,0.0,82,0.00,,,0.00,0,WeatherCatV1.21B27,2013-08-20 02:37:00,
2013-08-19 22:42:00,66.6,60.9,30.03,WNW,300,0.0,0.0,82,0.00,,,0.00,0,WeatherCatV1.21B27,2013-08-20 02:42:00,
2013-08-19 22:47:00,66.4,60.7,30.03,WNW,300,0.0,0.0,82,0.00,,,0.00,0,WeatherCatV1.21B27,2013-08-20 02:47:00,
2013-08-19 22:52:00,66.2,60.5,30.03,WNW,300,0.0,0.0,82,0.00,,,0.00,0,WeatherCatV1.21B27,2013-08-20 02:52:00,
2013-08-19 22:57:00,66.0,60.3,30.04,WNW,300,0.0,0.0,82,0.00,,,0.00,0,WeatherCatV1.21B27,2013-08-20 02:57:00,
2013-08-19 23:02:00,65.9,60.2,30.03,WNW,300,0.0,0.0,82,0.00,,,0.00,0,WeatherCatV1.21B27,2013-08-20 03:02:00,
2013-08-19 23:07:00,65.8,60.1,30.04,WNW,300,0.0,0.0,82,0.00,,,0.00,0,WeatherCatV1.21B27,2013-08-20 03:07:00,
2013-08-19 23:12:00,65.7,60.0,30.04,WNW,300,0.0,0.0,82,0.00,,,0.00,0,WeatherCatV1.21B27,2013-08-20 03:12:00,
2013-08-19 23:17:00,65.6,60.0,30.04,WNW,300,0.0,0.0,82,0.00,,,0.00,0,WeatherCatV1.21B27,2013-08-20 03:17:00,
2013-08-19 23:22:00,65.6,60.0,30.04,WNW,300,0.0,0.0,82,0.00,,,0.00,0,WeatherCatV1.21B27,2013-08-20 03:22:00,
2013-08-19 23:27:00,65.6,60.0,30.04,WNW,300,0.0,0.0,82,0.00,,,0.00,0,WeatherCatV1.21B27,2013-08-20 03:27:00,
2013-08-19 23:32:00,65.5,59.8,30.04,WNW,300,0.0,0.0,82,0.00,,,0.00,0,WeatherCatV1.21B27,2013-08-20 03:32:00,
2013-08-19 23:37:00,65.4,59.8,30.04,WNW,300,0.0,0.0,82,0.00,,,0.00,0,WeatherCatV1.21B27,2013-08-20 03:37:00,
2013-08-19 23:42:00,65.4,59.8,30.03,WNW,300,0.0,0.0,82,0.00,,,0.00,0,WeatherCatV1.21B27,2013-08-20 03:42:00,
2013-08-19 23:47:00,65.3,59.7,30.03,WNW,300,0.0,1.0,82,0.00,,,0.00,0,WeatherCatV1.21B27,2013-08-20 03:47:00,
2013-08-19 23:52:00,65.3,59.7,30.03,WNW,300,0.0,0.0,82,0.00,,,0.00,0,WeatherCatV1.21B27,2013-08-20 03:52:00,
2013-08-19 23:57:00,65.2,59.6,30.03,WNW,300,0.0,0.0,82,0.00,,,0.00,0,WeatherCatV1.21B27,2013-08-20 03:57:00,